This demonstration page uses our WeatherBlox Daily Observations layout. Learn more.

41.55636, -103.73856

Hourly Observations for July 9, 2016

Temp ( °F °C ) Dew Point ( °F °C ) Humidity (%) Winds ( mph kmh ) Pressure ( in mb ) Visibility ( mi km ) Precip ( " mm )
12:53 am 00:53 Clear 68 20 49 9.4 51 51 Calm 29.84 1011 10 16.0934 0 0
1:53 am 01:53 Clear 77 25 48 8.9 36 36 Calm 29.82 1010 10 16.0934 0 0
2:53 am 02:53 Clear 69 20.6 50 10 51 51 Calm 29.82 1010 10 16.0934 0 0
3:53 am 03:53 Clear 71 21.7 50 10 47 47 S 8 13 29.83 1010 10 16.0934 0 0
4:53 am 04:53 Clear 60 15.6 52 11.1 75 75 NNE 6 9 29.85 1011 10 16.0934 0 0
5:53 am 05:53 Sunny 60 15.6 52 11.1 75 75 ESE 6 9 29.85 1011 10 16.0934 0 0
6:53 am 06:53 Sunny 64 17.8 53 11.7 68 68 ESE 8 13 29.85 1011 10 16.0934 0 0
7:53 am 07:53 Sunny 70 21.1 54 12.2 57 57 ESE 5 7 29.84 1011 10 16.0934 0 0
8:53 am 08:53 Sunny 77 25 55 12.8 47 47 SSE 5 7 29.84 1010 10 16.0934 0 0
9:53 am 09:53 Sunny 83 28.3 57 13.9 41 41 E 8 13 29.82 1010 10 16.0934 0 0
10:53 am 10:53 Sunny 87 30.6 55 12.8 34 34 VRB 3 6 29.82 1010 10 16.0934 0 0
11:53 am 11:53 Sunny 94 34.4 48 8.9 21 21 W 7 11 29.81 1009 10 16.0934 0 0
12:53 pm 12:53 Sunny 96 35.6 49 9.4 20 20 Calm 29.79 1009 10 16.0934 0 0
1:53 pm 13:53 Sunny 100 37.8 40 4.4 13 13 NNE 3 6 29.75 1007 10 16.0934 0 0
2:53 pm 14:53 Sunny 102 38.9 33 0.6 9 9 VRB 5 7 29.74 1007 10 16.0934 0 0
3:53 pm 15:53 Sunny 102 38.9 31 -0.6 8 8 VRB 3 6 29.72 1006 10 16.0934 0 0
4:53 pm 16:53 Sunny 102 38.9 32 0 9 9 NW 6 9 29.72 1007 10 16.0934 0 0
5:53 pm 17:53 Sunny 100 37.8 38 3.3 12 12 SE 10 17 29.72 1007 10 16.0934 0 0
6:53 pm 18:53 Sunny 92 33.3 49 9.4 23 23 SSE 14 22 29.71 1006 10 16.0934 0 0
7:53 pm 19:53 Sunny 88 31.1 47 8.3 24 24 SE 12 19 29.71 1006 10 16.0934 0 0
8:53 pm 20:53 Clear 77 25 54 12.2 45 45 E 8 13 29.73 1007 10 16.0934 0 0
9:53 pm 21:53 Mostly Clear 77 25 54 12.2 45 45 E 10 17 29.73 1007 10 16.0934 0 0
10:53 pm 22:53 Clear 75 23.9 55 12.8 50 50 ESE 7 11 29.73 1007 10 16.0934 0 0
11:53 pm 23:53 Clear 78 25.6 45 7.2 31 31 E 3 6 29.7 1006 10 16.0934 0 0

Powered by AerisWeather